When you browse on this site, cookies collect data to enhance your experience and personalize the content and advertising you see.
Visit our Privacy Policy to learn more. By continuing to use the site, you agree to this use of cookies and data.

Stündliche Wetter Batumi

Heute, 9 August, Sonntag

Zeit Temperatur Niederschläge Wind Luftdruck Luftfeuchtigkeit
00:00 +26°C° 0 mm 1 m/S 755 mmHg 81%
01:00 +26°C° 0 mm 1 m/S 755 mmHg 81%
02:00 +26°C° 0 mm 1 m/S 754 mmHg 82%
03:00 +26°C° 0 mm 1 m/S 754 mmHg 80%
04:00 +26°C° 0 mm 1 m/S 754 mmHg 78%
05:00 +26°C° 0 mm 1 m/S 754 mmHg 76%
06:00 +26°C° 0 mm 1 m/S 754 mmHg 74%
07:00 +28°C° 0 mm 1 m/S 754 mmHg 68%
08:00 +30°C° 0 mm 1 m/S 754 mmHg 62%
09:00 +32°C° 0 mm 1 m/S 754 mmHg 58%
10:00 +33°C° 0 mm 1 m/S 754 mmHg 57%
11:00 +34°C° 0 mm 1 m/S 753 mmHg 57%
12:00 +36°C° 0 mm 2 m/S 753 mmHg 57%
13:00 +35°C° 0.1 mm 2 m/S 753 mmHg 59%
14:00 +35°C° 0.1 mm 2 m/S 753 mmHg 62%
15:00 +35°C° 0 mm 2 m/S 753 mmHg 63%
16:00 +34°C° 0.1 mm 2 m/S 753 mmHg 68%
17:00 +32°C° 0.1 mm 1 m/S 753 mmHg 73%
18:00 +31°C° 0.1 mm 1 m/S 753 mmHg 78%
19:00 +30°C° 0 mm 1 m/S 753 mmHg 83%
20:00 +28°C° 0 mm 1 m/S 753 mmHg 88%
21:00 +27°C° 0 mm 1 m/S 754 mmHg 93%
22:00 +27°C° 0.2 mm 1 m/S 754 mmHg 92%
23:00 +27°C° 0.2 mm 1 m/S 755 mmHg 92%

Morgen, 10 August, Montag

Zeit Temperatur Niederschläge Wind Luftdruck Luftfeuchtigkeit
00:00 +27°C° 0.2 mm 1 m/S 755 mmHg 92%
01:00 +27°C° 0.1 mm 1 m/S 755 mmHg 91%
02:00 +26°C° 0.1 mm 1 m/S 755 mmHg 89%
03:00 +26°C° 0.1 mm 1 m/S 755 mmHg 88%
04:00 +26°C° 0 mm 1 m/S 755 mmHg 87%
05:00 +26°C° 0 mm 1 m/S 755 mmHg 87%
06:00 +26°C° 0 mm 1 m/S 755 mmHg 87%
07:00 +28°C° 0 mm 2 m/S 755 mmHg 82%
08:00 +29°C° 0 mm 2 m/S 755 mmHg 78%
09:00 +31°C° 0 mm 2 m/S 754 mmHg 73%
10:00 +31°C° 0.1 mm 2 m/S 754 mmHg 73%
11:00 +32°C° 0.1 mm 2 m/S 754 mmHg 72%
12:00 +34°C° 0.1 mm 3 m/S 754 mmHg 71%
13:00 +33°C° 0.1 mm 3 m/S 754 mmHg 73%
14:00 +33°C° 0.1 mm 3 m/S 754 mmHg 74%
15:00 +33°C° 0.1 mm 3 m/S 754 mmHg 76%
16:00 +31°C° 0.2 mm 3 m/S 754 mmHg 81%
17:00 +30°C° 0.2 mm 2 m/S 754 mmHg 87%
18:00 +29°C° 0.2 mm 2 m/S 754 mmHg 92%
19:00 +28°C° 0.2 mm 2 m/S 755 mmHg 93%
20:00 +28°C° 0.2 mm 2 m/S 755 mmHg 93%
21:00 +27°C° 0.2 mm 2 m/S 756 mmHg 94%
22:00 +27°C° 0.1 mm 2 m/S 756 mmHg 94%
23:00 +27°C° 0.1 mm 2 m/S 756 mmHg 95%

übermorgen, 11 August, Dienstag

Zeit Temperatur Niederschläge Wind Luftdruck Luftfeuchtigkeit
00:00 +27°C° 0.1 mm 1 m/S 757 mmHg 96%
01:00 +27°C° 0 mm 2 m/S 757 mmHg 95%
02:00 +26°C° 0 mm 2 m/S 757 mmHg 95%
03:00 +26°C° 0 mm 2 m/S 757 mmHg 95%
04:00 +26°C° 0.4 mm 2 m/S 757 mmHg 95%
05:00 +26°C° 0.4 mm 3 m/S 757 mmHg 95%
06:00 +26°C° 0.4 mm 4 m/S 757 mmHg 95%
07:00 +27°C° 2.7 mm 4 m/S 757 mmHg 93%
08:00 +27°C° 2.7 mm 4 m/S 756 mmHg 92%
09:00 +28°C° 2.7 mm 4 m/S 756 mmHg 90%
10:00 +28°C° 1.8 mm 4 m/S 756 mmHg 91%
11:00 +28°C° 1.8 mm 4 m/S 756 mmHg 91%
12:00 +28°C° 1.8 mm 5 m/S 756 mmHg 91%
13:00 +28°C° 0.3 mm 4 m/S 756 mmHg 90%
14:00 +28°C° 0.3 mm 4 m/S 756 mmHg 89%
15:00 +28°C° 0.3 mm 4 m/S 756 mmHg 87%
16:00 +28°C° 0 mm 4 m/S 756 mmHg 87%
17:00 +28°C° 0 mm 4 m/S 757 mmHg 86%
18:00 +28°C° 0 mm 4 m/S 757 mmHg 86%
19:00 +27°C° 0.3 mm 4 m/S 757 mmHg 88%
20:00 +26°C° 0.3 mm 4 m/S 758 mmHg 90%
21:00 +25°C° 0.3 mm 5 m/S 758 mmHg 92%
22:00 +23°C° 0.6 mm 4 m/S 758 mmHg 92%
23:00 +23°C° 0.6 mm 4 m/S 759 mmHg 91%

12 August, Mittwoch

Zeit Temperatur Niederschläge Wind Luftdruck Luftfeuchtigkeit
00:00 +23°C° 0.6 mm 4 m/S 759 mmHg 91%
01:00 +23°C° 0.7 mm 4 m/S 759 mmHg 92%
02:00 +23°C° 0.7 mm 4 m/S 759 mmHg 92%
03:00 +22°C° 0.7 mm 4 m/S 758 mmHg 92%
04:00 +23°C° 0.4 mm 4 m/S 758 mmHg 91%
05:00 +23°C° 0.4 mm 4 m/S 759 mmHg 89%
06:00 +23°C° 0.4 mm 4 m/S 759 mmHg 88%
07:00 +26°C° 0.1 mm 3 m/S 759 mmHg 81%
08:00 +28°C° 0.1 mm 3 m/S 759 mmHg 74%
09:00 +29°C° 0.1 mm 3 m/S 758 mmHg 68%
10:00 +30°C° 0.1 mm 3 m/S 758 mmHg 67%
11:00 +30°C° 0.1 mm 4 m/S 758 mmHg 67%
12:00 +32°C° 0.1 mm 4 m/S 758 mmHg 66%
13:00 +32°C° 0 mm 4 m/S 758 mmHg 68%
14:00 +30°C° 0 mm 4 m/S 758 mmHg 70%
15:00 +30°C° 0 mm 4 m/S 757 mmHg 72%
16:00 +29°C° 0 mm 3 m/S 757 mmHg 76%
17:00 +29°C° 0 mm 3 m/S 758 mmHg 80%
18:00 +28°C° 0 mm 3 m/S 758 mmHg 84%
19:00 +27°C° 0 mm 3 m/S 758 mmHg 87%
20:00 +26°C° 0 mm 3 m/S 759 mmHg 90%
21:00 +25°C° 0 mm 4 m/S 759 mmHg 93%
22:00 +25°C° 0 mm 3 m/S 759 mmHg 93%
23:00 +24°C° 0 mm 3 m/S 759 mmHg 92%

13 August, Donnerstag

Zeit Temperatur Niederschläge Wind Luftdruck Luftfeuchtigkeit
00:00 +24°C° 0 mm 3 m/S 759 mmHg 92%
01:00 +24°C° 0.1 mm 3 m/S 759 mmHg 92%
02:00 +24°C° 0.1 mm 3 m/S 759 mmHg 92%
03:00 +24°C° 0.1 mm 3 m/S 758 mmHg 92%
04:00 +24°C° 0.3 mm 3 m/S 758 mmHg 91%
05:00 +24°C° 0.3 mm 3 m/S 758 mmHg 90%
06:00 +24°C° 0.3 mm 3 m/S 758 mmHg 89%
07:00 +26°C° 0.3 mm 3 m/S 758 mmHg 83%
08:00 +27°C° 0.3 mm 4 m/S 758 mmHg 77%
09:00 +29°C° 0.3 mm 4 m/S 758 mmHg 71%
10:00 +29°C° 0.2 mm 4 m/S 758 mmHg 73%
11:00 +29°C° 0.2 mm 4 m/S 758 mmHg 74%
12:00 +29°C° 0.2 mm 4 m/S 757 mmHg 76%
13:00 +29°C° 0.2 mm 4 m/S 757 mmHg 77%
14:00 +29°C° 0.2 mm 4 m/S 757 mmHg 78%
15:00 +29°C° 0.2 mm 4 m/S 757 mmHg 80%
16:00 +28°C° 0.1 mm 3 m/S 757 mmHg 82%
17:00 +28°C° 0.1 mm 3 m/S 757 mmHg 85%
18:00 +27°C° 0.1 mm 3 m/S 757 mmHg 87%
19:00 +26°C° 0 mm 3 m/S 758 mmHg 89%
20:00 +25°C° 0 mm 3 m/S 758 mmHg 90%
21:00 +24°C° 0 mm 3 m/S 759 mmHg 92%
22:00 +22°C° 0.1 mm 3 m/S 758 mmHg 90%
23:00 +22°C° 0.1 mm 3 m/S 758 mmHg 89%

14 August, Freitag

Zeit Temperatur Niederschläge Wind Luftdruck Luftfeuchtigkeit
00:00 +22°C° 0.1 mm 3 m/S 758 mmHg 87%
01:00 +21°C° 0.2 mm 3 m/S 758 mmHg 86%
02:00 +21°C° 0.2 mm 3 m/S 758 mmHg 85%
03:00 +21°C° 0.2 mm 3 m/S 758 mmHg 84%
04:00 +21°C° 0.3 mm 3 m/S 758 mmHg 84%
05:00 +21°C° 0.3 mm 3 m/S 758 mmHg 83%
06:00 +21°C° 0.3 mm 3 m/S 758 mmHg 82%
07:00 +24°C° 0.3 mm 3 m/S 758 mmHg 79%
08:00 +26°C° 0.3 mm 3 m/S 758 mmHg 75%
09:00 +28°C° 0.3 mm 3 m/S 758 mmHg 72%
10:00 +28°C° 0.1 mm 3 m/S 757 mmHg 71%
11:00 +28°C° 0.1 mm 4 m/S 757 mmHg 71%
12:00 +29°C° 0.1 mm 4 m/S 757 mmHg 70%
13:00 +29°C° 0.1 mm 4 m/S 757 mmHg 71%
14:00 +29°C° 0.1 mm 4 m/S 757 mmHg 72%
15:00 +29°C° 0.1 mm 4 m/S 757 mmHg 73%
16:00 +28°C° 0.3 mm 3 m/S 757 mmHg 77%
17:00 +27°C° 0.3 mm 3 m/S 757 mmHg 82%
18:00 +26°C° 0.3 mm 3 m/S 757 mmHg 86%
19:00 +25°C° 0.4 mm 3 m/S 758 mmHg 89%
20:00 +24°C° 0.4 mm 3 m/S 758 mmHg 91%
21:00 +22°C° 0.4 mm 3 m/S 759 mmHg 94%
22:00 +22°C° 0.4 mm 3 m/S 759 mmHg 94%
23:00 +22°C° 0.4 mm 3 m/S 759 mmHg 94%
Mehr zeigen